Volver al catálogo

RASSVET-3 10

ActivoCienciaPO
NORAD 68369·PAYLOAD·🇷🇺 Russia

Lanzado Mar 23, 2026 desde Plesetsk Cosmodrome

Loading…

Próximos Pases (próximas 24 horas)

TLE

ActualizadoSource: Space-Track

Época: Sep 14, 2026, 20:33 UTC

1 68369U 26061K   26257.85693579  .00003143  00000-0  15136-3 0  9991
2 68369  82.2824 274.9928 0002973 131.7158 228.4330 15.18421011 27531

Sigue RASSVET-3 10 en tiempo real con AllMySat

Download on the App Store